This is the latest recevied weather packets stored in our database for station/object KD4MBW. If no packets are shown the sender has not sent any weather packets the latest 10 day(s).
| Time | Temp. | Humidity | Pressure | Rain* | Wind** | Luminosity | Snow |
|---|---|---|---|---|---|---|---|
| 1777653425 | 23.33° C | 83% | 1013 hPa | 0 mm | - | 114 W/m² | - |
| 1777653122 | 23.33° C | 83% | 1013 hPa | 0 mm | - | 156 W/m² | - |
| 1777652818 | 23.33° C | 83% | 1013.3 hPa | 0 mm | - | 114 W/m² | - |
| 1777652515 | 23.33° C | 82% | 1013.3 hPa | 0 mm | - | 204 W/m² | - |
| 1777652212 | 23.33° C | 83% | 1013.3 hPa | 0 mm | - | 394 W/m² | - |
| 1777651909 | 23.33° C | 83% | 1012.9 hPa | 0 mm | - | 424 W/m² | - |
| 1777651606 | 22.78° C | 83% | 1012.9 hPa | 0 mm | - | 460 W/m² | - |
| 1777651303 | 22.78° C | 85% | 1012.8 hPa | 0 mm | - | 358 W/m² | - |
| 1777651000 | 22.22° C | 86% | 1013 hPa | 0 mm | - | 337 W/m² | - |
| 1777650697 | 22.22° C | 86% | 1012.6 hPa | 0 mm | - | 315 W/m² | - |
| 1777650394 | 21.67° C | 86% | 1013.2 hPa | 0 mm | - | 275 W/m² | - |
| 1777650091 | 21.67° C | 86% | 1013 hPa | 0 mm | - | 304 W/m² | - |
| 1777649789 | 21.67° C | 86% | 1012.8 hPa | 0 mm | - | 335 W/m² | - |
| 1777649485 | 21.11° C | 87% | 1013.3 hPa | 0 mm | - | 292 W/m² | - |
| 1777649182 | 21.11° C | 86% | 1013.2 hPa | 0 mm | - | 315 W/m² | - |
| 1777648879 | 21.11° C | 87% | 1013.3 hPa | 0 mm | - | 295 W/m² | - |
| 1777648273 | 20.56° C | 89% | 1013.5 hPa | 0 mm | - | 339 W/m² | - |
| 1777647969 | 20.56° C | 89% | 1013.5 hPa | 0 mm | - | 223 W/m² | - |
| 1777647665 | 20.56° C | 90% | 1013.7 hPa | 0 mm | - | 85 W/m² | - |
| 1777647361 | 20.56° C | 91% | 1013.4 hPa | 0 mm | - | 179 W/m² | - |
| 1777647060 | 20.56° C | 90% | 1013.7 hPa | 0 mm | - | 184 W/m² | - |
| 1777646755 | 20.56° C | 90% | 1013.9 hPa | 0 mm | - | 191 W/m² | - |
| 1777646450 | 20° C | 91% | 1013.5 hPa | 0 mm | - | 239 W/m² | - |
| 1777646147 | 20° C | 92% | 1013.6 hPa | 0 mm | - | 219 W/m² | - |
| 1777645844 | 20° C | 92% | 1014.1 hPa | 0 mm | - | 158 W/m² | - |
* Rain latest hour (hover to see other rain measurements)
** Current wind speed in m/s (hover to see current wind gust speed)